Location: Carri�res
(48.9069°N, 2.1792°E)
Time: 11:39:49
(UTC+00:00)

deb Kosmos- 1898 - Pass Details

Date: 04 August 2021
Orbit: 731 x 754 km, 74.0° (Epoch: 18 September)

Event Time Altitude Azimuth Distance (km) Brightness Sun altitude
Exits shadow 01:43:02 42° 205° (SSW) 1,063 ? -19.8°
Maximum altitude 01:44:50 88° 293° (WNW) 755 ? -19.7°
Drops below altitude 10° 01:50:01 10° 23° (NNE) 2,282 ? -19.3°
Sets 01:52:24 0° 24° (NNE) 3,214 ? -19.1°
